Time,TemperatureF,DewpointF,PressureIn,WindDirection,WindDirectionDegrees,WindSpeedMPH,WindSpeedGustMPH,Humidity,HourlyPrecipIn,Conditions,Clouds,dailyrainin,SoftwareType,DateUTC
2013-10-31 00:13:00,62.0,61.0,29.84,SSE,151,3.0,8.0,96,0.10,,,0.45,,2013-10-31 05:13:00,
2013-10-31 00:23:00,62.0,61.0,29.84,South,188,3.0,7.0,97,0.11,,,0.46,,2013-10-31 05:23:00,
2013-10-31 00:52:00,62.0,61.0,29.83,SSE,158,3.0,7.0,97,0.06,,,0.49,,2013-10-31 05:52:00,
2013-10-31 01:12:00,63.0,62.0,29.82,SSE,155,3.0,10.0,97,0.05,,,0.50,,2013-10-31 06:12:00,
2013-10-31 01:22:00,63.0,62.0,29.81,SSW,195,2.0,7.0,97,0.06,,,0.52,,2013-10-31 06:22:00,
2013-10-31 01:42:00,63.0,62.0,29.82,South,181,3.0,8.0,97,0.07,,,0.54,,2013-10-31 06:42:00,
2013-10-31 01:53:00,63.0,62.0,29.81,East,89,1.0,6.0,97,0.07,,,0.56,,2013-10-31 06:53:00,
2013-10-31 02:11:00,63.0,62.0,29.80,SSE,150,1.0,5.0,97,0.07,,,0.56,,2013-10-31 07:11:00,
2013-10-31 02:21:00,63.0,62.0,29.79,South,176,2.0,8.0,97,0.05,,,0.56,,2013-10-31 07:21:00,
2013-10-31 02:42:00,63.0,62.0,29.78,SE,129,1.0,6.0,97,0.03,,,0.56,,2013-10-31 07:42:00,
2013-10-31 02:52:00,63.0,62.0,29.78,South,178,2.0,4.0,97,0.01,,,0.56,,2013-10-31 07:52:00,
2013-10-31 03:12:00,63.0,62.0,29.75,East,100,2.0,7.0,97,0.01,,,0.57,,2013-10-31 08:12:00,
2013-10-31 03:22:00,63.0,62.0,29.76,SSE,157,1.0,6.0,97,0.03,,,0.60,,2013-10-31 08:22:00,
2013-10-31 03:42:00,63.0,62.0,29.75,SE,139,2.0,6.0,97,0.03,,,0.60,,2013-10-31 08:42:00,
2013-10-31 03:52:00,63.0,62.0,29.72,ESE,111,2.0,8.0,97,0.04,,,0.61,,2013-10-31 08:52:00,
2013-10-31 04:01:00,63.0,62.0,29.72,ESE,111,2.0,8.0,97,0.04,,,0.61,,2013-10-31 09:01:00,
2013-10-31 04:11:00,63.0,62.0,29.72,ESE,111,2.0,8.0,97,0.04,,,0.61,,2013-10-31 09:11:00,
2013-10-31 04:22:00,63.0,62.0,29.68,SSE,155,4.0,11.0,97,0.02,,,0.62,,2013-10-31 09:22:00,
2013-10-31 04:43:00,63.0,62.0,29.67,East,98,1.0,6.0,97,0.03,,,0.63,,2013-10-31 09:43:00,
2013-10-31 04:53:00,63.0,62.0,29.70,SSW,205,3.0,6.0,97,0.02,,,0.63,,2013-10-31 09:53:00,
2013-10-31 05:13:00,63.0,62.0,29.68,ESE,118,2.0,4.0,97,0.05,,,0.67,,2013-10-31 10:13:00,
2013-10-31 05:23:00,63.0,62.0,29.66,ESE,111,0.0,4.0,97,0.06,,,0.68,,2013-10-31 10:23:00,
2013-10-31 05:42:00,63.0,62.0,29.66,SE,145,0.0,4.0,97,0.06,,,0.69,,2013-10-31 10:42:00,
2013-10-31 05:53:00,63.0,62.0,29.67,SSE,153,0.0,3.0,97,0.06,,,0.70,,2013-10-31 10:53:00,
2013-10-31 06:12:00,63.0,62.0,29.66,SE,124,0.0,2.0,98,0.06,,,0.73,,2013-10-31 11:12:00,
2013-10-31 06:21:00,63.0,62.0,29.65,SSE,165,0.0,1.0,98,0.06,,,0.74,,2013-10-31 11:21:00,
2013-10-31 06:42:00,63.0,62.0,29.65,SSE,165,0.0,1.0,98,0.05,,,0.74,,2013-10-31 11:42:00,
2013-10-31 06:52:00,63.0,62.0,29.64,SSE,149,0.0,1.0,98,0.03,,,0.74,,2013-10-31 11:52:00,
2013-10-31 07:12:00,63.0,62.0,29.64,SE,125,1.0,2.0,98,0.01,,,0.74,,2013-10-31 12:12:00,
2013-10-31 07:22:00,63.0,62.0,29.61,ESE,121,1.0,4.0,98,0.00,,,0.74,,2013-10-31 12:22:00,
2013-10-31 07:52:00,63.0,62.0,29.59,SE,132,0.0,4.0,98,0.00,,,0.74,,2013-10-31 12:52:00,
2013-10-31 08:12:00,63.0,62.0,29.59,SE,134,0.0,2.0,98,0.00,,,0.74,,2013-10-31 13:12:00,
2013-10-31 08:22:00,63.0,62.0,29.59,SSE,151,0.0,2.0,98,0.00,,,0.74,,2013-10-31 13:22:00,
2013-10-31 08:42:00,63.0,62.0,29.59,SSE,155,1.0,4.0,98,0.00,,,0.74,,2013-10-31 13:42:00,
2013-10-31 08:52:00,63.0,62.0,29.59,South,179,1.0,4.0,98,0.00,,,0.74,,2013-10-31 13:52:00,
2013-10-31 09:11:00,63.0,62.0,29.59,SSE,165,0.0,4.0,98,0.00,,,0.74,,2013-10-31 14:11:00,
2013-10-31 09:21:00,63.0,62.0,29.59,SSW,193,0.0,3.0,98,0.00,,,0.74,,2013-10-31 14:21:00,
2013-10-31 09:42:00,63.0,62.0,29.59,SE,132,1.0,4.0,98,0.00,,,0.74,,2013-10-31 14:42:00,
2013-10-31 09:52:00,63.0,62.0,29.58,ESE,108,0.0,3.0,98,0.00,,,0.74,,2013-10-31 14:52:00,
2013-10-31 10:11:00,64.0,63.0,29.59,WSW,243,0.0,1.0,98,0.00,,,0.74,,2013-10-31 15:11:00,
2013-10-31 11:23:00,64.0,63.0,29.59,SSE,163,0.0,2.0,98,0.06,,,0.80,,2013-10-31 16:23:00,
2013-10-31 11:53:00,65.0,64.0,29.57,SE,139,0.0,1.0,98,0.05,,,0.82,,2013-10-31 16:53:00,
2013-10-31 12:22:00,67.0,66.0,29.55,SE,132,3.0,7.0,98,0.02,,,0.82,,2013-10-31 17:22:00,
2013-10-31 12:43:00,68.0,67.0,29.54,South,169,2.0,7.0,97,0.00,,,0.82,,2013-10-31 17:43:00,
2013-10-31 12:52:00,69.0,67.0,29.53,South,178,3.0,7.0,94,0.00,,,0.82,,2013-10-31 17:52:00,
2013-10-31 13:22:00,71.0,68.0,29.50,SSE,166,2.0,9.0,89,0.00,,,0.82,,2013-10-31 18:22:00,
2013-10-31 13:52:00,72.0,66.0,29.47,WSW,238,5.0,11.0,82,0.00,,,0.82,,2013-10-31 18:52:00,
2013-10-31 14:21:00,73.0,66.0,29.44,SSW,196,3.0,11.0,79,0.00,,,0.82,,2013-10-31 19:21:00,
2013-10-31 14:52:00,75.0,66.0,29.43,SE,144,5.0,12.0,73,0.00,,,0.82,,2013-10-31 19:52:00,
2013-10-31 15:02:00,75.0,66.0,29.43,SE,144,5.0,12.0,73,0.00,,,0.82,,2013-10-31 20:02:00,
2013-10-31 15:22:00,75.0,64.0,29.42,SSW,202,4.0,14.0,69,0.00,,,0.82,,2013-10-31 20:22:00,
2013-10-31 15:52:00,76.0,64.0,29.41,SSW,211,2.0,9.0,67,0.00,,,0.82,,2013-10-31 20:52:00,
2013-10-31 16:22:00,76.0,61.0,29.41,South,176,3.0,8.0,59,0.00,,,0.82,,2013-10-31 21:22:00,
2013-10-31 16:44:00,75.0,60.0,29.41,South,181,3.0,9.0,60,0.00,,,0.82,,2013-10-31 21:44:00,
2013-10-31 16:54:00,74.0,60.0,29.43,SSW,194,4.0,21.0,61,0.00,,,0.82,,2013-10-31 21:54:00,
2013-10-31 17:13:00,75.0,57.0,29.44,South,176,4.0,15.0,54,0.00,,,0.82,,2013-10-31 22:13:00,
2013-10-31 17:24:00,73.0,50.0,29.45,West,281,3.0,17.0,44,0.00,,,0.82,,2013-10-31 22:24:00,
2013-10-31 17:53:00,72.0,48.0,29.48,NW,309,6.0,16.0,42,0.00,,,0.82,,2013-10-31 22:53:00,
2013-10-31 18:22:00,68.0,49.0,29.53,SSW,203,4.0,14.0,51,0.00,,,0.82,,2013-10-31 23:22:00,
2013-10-31 18:53:00,64.0,53.0,29.56,SSE,167,2.0,9.0,68,0.00,,,0.82,,2013-10-31 23:53:00,
2013-10-31 19:21:00,62.0,55.0,29.59,West,278,0.0,11.0,78,0.00,,,0.82,,2013-11-01 00:21:00,
2013-10-31 19:42:00,61.0,54.0,29.60,NW,312,1.0,7.0,78,0.00,,,0.75,,2013-11-01 00:42:00,
2013-10-31 19:52:00,61.0,54.0,29.60,NW,312,1.0,7.0,78,0.00,,,0.75,,2013-11-01 00:52:00,
2013-10-31 20:22:00,58.0,52.0,29.65,WNW,302,2.0,13.0,79,0.00,,,0.75,,2013-11-01 01:22:00,
2013-10-31 20:52:00,57.0,51.0,29.66,WNW,291,1.0,7.0,81,0.00,,,0.56,,2013-11-01 01:52:00,
2013-10-31 21:22:00,56.0,51.0,29.68,NNE,20,1.0,4.0,84,0.00,,,0.56,,2013-11-01 02:22:00,
2013-10-31 21:52:00,55.0,51.0,29.69,East,91,0.0,4.0,85,0.00,,,0.54,,2013-11-01 02:52:00,
2013-10-31 22:22:00,54.0,50.0,29.71,SW,225,0.0,3.0,86,0.00,,,0.54,,2013-11-01 03:22:00,
2013-10-31 22:54:00,53.0,49.0,29.71,SW,235,0.0,2.0,87,0.00,,,0.50,,2013-11-01 03:54:00,
2013-10-31 23:24:00,52.0,49.0,29.72,SW,215,0.0,1.0,90,0.00,,,0.50,,2013-11-01 04:24:00,
2013-10-31 23:54:00,51.0,49.0,29.73,South,181,0.0,2.0,92,0.00,,,0.46,,2013-11-01 04:54:00,